Location: Detroit
(42.3310°N, 83.0460°W)
Time: 19:59:24
(UTC-04:00)

A-11 Canister half - Pass Details

Date: 16 February 2023
Orbit: 1526 x 1682 km, 47.3° (Epoch: 29 March)

Event Time Altitude Azimuth Distance (km) Brightness Sun altitude
Rises 03:05:08 0° 237° (WSW) 4,722 - -47.6°
Reaches altitude 10° 03:08:12 10° 237° (WSW) 3,725 - -47.1°
Maximum altitude 03:17:35 82° 151° (SSE) 1,545 - -45.6°
Exits shadow 03:20:41 48° 72° (ENE) 1,909 9.6 -45.1°
Drops below altitude 10° 03:26:54 10° 66° (ENE) 3,699 11.6 -44.1°
Sets 03:29:57 0° 66° (ENE) 4,689 12.3 -43.6°
